This is the latest recevied weather packets stored in our database for station/object BARLOW-WX. If no packets are shown the sender has not sent any weather packets the latest 10 day(s).
| Time | Temp. | Humidity | Pressure | Rain* | Wind** | Luminosity | Snow |
|---|---|---|---|---|---|---|---|
| 1787754680 | 21.67° C | 74% | 985.7 hPa | 0 mm | - | - | - |
| 1787753780 | 20° C | 74% | 985.6 hPa | 0 mm | - | - | - |
| 1787752880 | 18.33° C | 60% | 985.9 hPa | 0 mm | - | - | - |
| 1787751979 | 18.33° C | 69% | 986.2 hPa | 0 mm | - | - | - |
| 1787751079 | 18.33° C | 69% | 986.2 hPa | 0 mm | - | - | - |
| 1787750179 | 17.78° C | 69% | 986.2 hPa | 0 mm | - | - | - |
| 1787749280 | 16.67° C | 69% | 986.2 hPa | 0 mm | - | - | - |
| 1787748379 | 16.11° C | 82% | 985.9 hPa | 0 mm | - | - | - |
| 1787747478 | 15.56° C | 84% | 986.7 hPa | 0 mm | - | - | - |
| 1787746578 | 14.44° C | 84% | 986.7 hPa | 0 mm | - | - | - |
| 1787745684 | 13.89° C | 84% | 986.7 hPa | 0 mm | - | - | - |
| 1787744779 | 13.89° C | 85% | 986.5 hPa | 0 mm | - | - | - |
| 1787743878 | 13.33° C | 83% | 985.9 hPa | 0 mm | - | - | - |
| 1787742978 | 13.89° C | 83% | 986 hPa | 0 mm | - | - | - |
| 1787742079 | 13.89° C | 83% | 986 hPa | 0 mm | - | - | - |
| 1787741179 | 13.89° C | 85% | 986.6 hPa | 0 mm | - | - | - |
| 1787740278 | 13.33° C | 88% | 987.2 hPa | 0 mm | - | - | - |
| 1787739378 | 13.33° C | 88% | 987.2 hPa | 0 mm | - | - | - |
| 1787738481 | 13.33° C | 88% | 987.2 hPa | 0 mm | - | - | - |
| 1787737887 | 13.33° C | 87% | 987.3 hPa | 0 mm | - | - | - |
| 1787736684 | 13.33° C | 89% | 987.8 hPa | 0 mm | - | - | - |
| 1787735785 | 13.33° C | 89% | 987.8 hPa | 0 mm | - | - | - |
| 1787734886 | 13.33° C | 89% | 987.8 hPa | 0 mm | - | - | - |
| 1787733985 | 13.33° C | 87% | 987.2 hPa | 0 mm | - | - | - |
| 1787733086 | 13.33° C | 88% | 986.9 hPa | 0 mm | - | - | - |
* Rain latest hour (hover to see other rain measurements)
** Current wind speed in m/s (hover to see current wind gust speed)